Date String (YYYY-MM-DD hh:mm:ss) UTC,Instrument flags,Ambient pressure (hPa),Sample flow (lpm),Bypass flow (lpm),Sample temperature (°C),Ambient temperature (°C),ASC tube jacket temperature (°C),LED temperature (°C),Box temperature (°C),Sample RH (%),Span deviation,Mass concentration (μg/m³),Mass concentration (μg/m³),Mass concentration (μg/m³)
DateTimeUTC,F1_M11,P_M11,Q1_M11,Q2_M11,T1_M11,T2_M11,T3_M11,T4_M11,T5_M11,U1_M11,ZSPAN_M11,X0_M11,X2_M11,X1_M11
2022-10-24 02:00:00,,0813.2,4.99,0.00,28.7,26.4,00.0,37.7,30.4,12.0,0000.0,0011.78,0002.48,0001.22
2022-10-24 02:01:00,,0813.3,5.00,0.00,28.7,26.4,00.0,37.7,30.4,11.9,0000.0,0011.27,0002.42,0001.21
2022-10-24 02:02:00,,0813.3,5.00,0.00,28.6,26.4,00.0,37.6,30.4,11.9,0000.0,0010.77,0002.39,0001.18
2022-10-24 02:03:00,,0813.3,5.00,0.00,28.6,26.4,00.0,37.6,30.3,12.1,0000.0,0010.79,0002.40,0001.17
2022-10-24 02:04:00,,0813.4,5.01,0.00,28.6,26.4,00.0,37.6,30.3,11.8,0000.0,0010.45,0002.42,0001.16
2022-10-24 02:05:00,,0813.3,5.02,0.00,28.6,26.4,00.0,37.6,30.3,11.8,0000.0,0010.15,0002.45,0001.16
2022-10-24 02:06:00,,0813.4,4.98,0.00,28.5,26.5,00.0,37.6,30.3,11.9,0000.0,0010.17,0002.44,0001.15
2022-10-24 02:07:00,,0813.4,5.01,0.00,28.5,26.5,00.0,37.5,30.3,11.7,0000.0,0011.05,0002.40,0001.15
2022-10-24 02:08:00,,0813.5,4.98,0.00,28.5,26.5,00.0,37.5,30.3,11.7,0000.0,0010.72,0002.39,0001.14
2022-10-24 02:09:00,,0813.5,5.02,0.00,28.5,26.4,00.0,37.5,30.3,11.7,0000.0,0011.56,0002.44,0001.15
2022-10-24 02:10:00,,0813.5,5.00,0.00,28.5,26.4,00.0,37.5,30.2,12.1,0000.0,0012.97,0002.48,0001.15
2022-10-24 02:11:00,,0813.6,5.00,0.00,28.5,26.3,00.0,37.5,30.2,12.1,0000.0,0013.09,0002.47,0001.15
2022-10-24 02:12:00,,0813.6,5.00,0.00,28.4,26.2,00.0,37.4,30.1,12.0,0000.0,0013.24,0002.44,0001.15
2022-10-24 02:13:00,,0814.0,5.01,0.00,28.4,26.2,00.0,37.4,30.1,11.8,0000.0,0013.57,0002.45,0001.16
2022-10-24 02:14:00,,0814.2,5.00,0.00,28.3,26.1,00.0,37.4,30.0,12.0,0000.0,0013.24,0002.50,0001.17
2022-10-24 02:15:00,,0814.3,4.98,0.00,28.3,26.0,00.0,37.4,29.9,12.1,0000.0,0012.70,0002.50,0001.19
2022-10-24 02:16:00,,0814.3,5.02,0.00,28.2,25.9,00.0,37.3,29.9,12.5,0000.0,0012.72,0002.57,0001.20
2022-10-24 02:17:00,,0814.3,5.00,0.00,28.2,25.9,00.0,37.3,29.9,12.8,0000.0,0012.70,0002.65,0001.23
2022-10-24 02:18:00,,0814.3,4.99,0.00,28.1,25.8,00.0,37.3,29.8,13.0,0000.0,0012.00,0002.68,0001.26
2022-10-24 02:19:00,,0814.1,5.00,0.00,28.1,25.6,00.0,37.2,29.7,13.2,0000.0,0012.37,0002.77,0001.30
2022-10-24 02:20:00,,0813.9,5.01,0.00,28.0,25.5,00.0,37.2,29.7,13.2,0000.0,0011.96,0002.78,0001.33
2022-10-24 02:21:00,,0813.9,4.98,0.00,28.0,25.4,00.0,37.1,29.6,13.3,0000.0,0011.53,0002.85,0001.37
2022-10-24 02:22:00,,0814.0,5.02,0.00,27.9,25.2,00.0,37.1,29.5,13.4,0000.0,0012.11,0002.87,0001.40
2022-10-24 02:23:00,,0814.4,4.99,0.00,27.8,25.1,00.0,37.0,29.5,13.6,0000.0,0012.19,0002.99,0001.42
2022-10-24 02:24:00,,0814.2,4.99,0.00,27.8,25.0,00.0,37.0,29.4,13.8,0000.0,0013.63,0003.13,0001.44
2022-10-24 02:25:00,,0814.1,5.01,0.00,27.7,25.0,00.0,36.9,29.4,13.9,0000.0,0014.53,0003.20,0001.47
2022-10-24 02:26:00,,0814.0,4.99,0.00,27.7,25.0,00.0,36.9,29.3,13.9,0000.0,0014.82,0003.23,0001.49
2022-10-24 02:27:00,,0814.0,4.99,0.00,27.6,25.0,00.0,36.9,29.3,14.0,0000.0,0016.06,0003.22,0001.49
2022-10-24 02:28:00,,0814.1,5.00,0.00,27.6,25.0,00.0,36.8,29.3,14.1,0000.0,0016.69,0003.24,0001.49
2022-10-24 02:29:00,,0814.2,5.01,0.00,27.6,24.9,00.0,36.8,29.2,14.0,0000.0,0016.62,0003.26,0001.49
2022-10-24 02:30:00,,0814.0,4.99,0.00,27.5,24.8,00.0,36.8,29.2,14.1,0000.0,0016.06,0003.28,0001.48
2022-10-24 02:31:00,,0814.0,5.00,0.00,27.5,24.8,00.0,36.7,29.1,14.2,0000.0,0015.86,0003.27,0001.48
2022-10-24 02:32:00,,0814.0,5.01,0.00,27.4,24.7,00.0,36.7,29.1,14.2,0000.0,0016.07,0003.26,0001.48
2022-10-24 02:33:00,,0814.0,4.99,0.00,27.4,24.6,00.0,36.6,29.0,14.5,0000.0,0016.20,0003.24,0001.47
2022-10-24 02:34:00,,0814.0,5.01,0.00,27.3,24.4,00.0,36.6,29.0,14.7,0000.0,0016.83,0003.21,0001.48
2022-10-24 02:35:00,,0814.1,4.99,0.00,27.3,24.4,00.0,36.5,28.9,14.9,0000.0,0015.56,0003.15,0001.48
2022-10-24 02:36:00,,0814.1,4.99,0.00,27.2,24.2,00.0,36.5,28.8,15.0,0000.0,0014.39,0003.04,0001.46
2022-10-24 02:37:00,,0814.1,5.02,0.00,27.2,24.1,00.0,36.4,28.8,15.2,0000.0,0014.52,0002.94,0001.44
2022-10-24 02:38:00,,0814.0,4.99,0.00,27.1,24.1,00.0,36.4,28.7,15.4,0000.0,0013.19,0002.92,0001.42
2022-10-24 02:39:00,,0814.3,5.02,0.00,27.0,24.1,00.0,36.3,28.6,15.6,0000.0,0012.51,0002.86,0001.41
2022-10-24 02:40:00,,0814.2,4.98,0.00,27.0,24.1,00.0,36.3,28.6,15.6,0000.0,0012.43,0002.82,0001.41
2022-10-24 02:41:00,,0814.1,4.98,0.00,26.9,24.0,00.0,36.2,28.6,15.7,0000.0,0011.93,0002.75,0001.41
2022-10-24 02:42:00,,0814.3,5.02,0.00,26.9,23.9,00.0,36.2,28.5,15.7,0000.0,0011.58,0002.79,0001.41
2022-10-24 02:43:00,,0814.4,4.98,0.00,26.8,23.9,00.0,36.1,28.4,15.9,0000.0,0010.33,0002.75,0001.40
2022-10-24 02:44:00,,0814.5,5.00,0.00,26.8,23.8,00.0,36.1,28.4,15.9,0000.0,0009.57,0002.77,0001.41
2022-10-24 02:45:00,,0814.3,4.99,0.00,26.7,23.7,00.0,36.0,28.3,16.0,0000.0,0009.57,0002.75,0001.40
2022-10-24 02:46:00,,0814.3,4.99,0.00,26.7,23.7,00.0,36.0,28.3,16.1,0000.0,0009.33,0002.74,0001.41
2022-10-24 02:47:00,,0814.5,5.01,0.00,26.6,23.6,00.0,35.9,28.2,16.1,0000.0,0009.38,0002.79,0001.43
2022-10-24 02:48:00,,0814.4,5.01,0.00,26.6,23.5,00.0,35.9,28.2,16.1,0000.0,0009.34,0002.89,0001.46
2022-10-24 02:49:00,,0814.4,4.99,0.00,26.5,23.4,00.0,35.8,28.1,16.2,0000.0,0009.42,0002.98,0001.49
2022-10-24 02:50:00,,0814.3,5.01,0.00,26.5,23.4,00.0,35.8,28.1,16.2,0000.0,0009.55,0003.02,0001.51
2022-10-24 02:51:00,,0814.3,4.99,0.00,26.4,23.4,00.0,35.7,28.0,16.3,0000.0,0009.76,0003.06,0001.54
2022-10-24 02:52:00,,0814.4,5.01,0.00,26.4,23.3,00.0,35.7,28.0,16.3,0000.0,0009.67,0003.06,0001.56
2022-10-24 02:53:00,,0814.4,4.99,0.00,26.3,23.3,00.0,35.6,28.0,16.4,0000.0,0009.59,0003.02,0001.58
2022-10-24 02:54:00,,0814.4,5.00,0.00,26.3,23.3,00.0,35.6,27.9,16.5,0000.0,0010.21,0003.07,0001.59
2022-10-24 02:55:00,,0814.3,5.01,0.00,26.2,23.3,00.0,35.5,27.9,16.5,0000.0,0010.40,0003.12,0001.62
2022-10-24 02:56:00,,0814.4,4.99,0.00,26.2,23.3,00.0,35.5,27.9,16.6,0000.0,0010.02,0003.12,0001.64
2022-10-24 02:57:00,,0814.4,5.01,0.00,26.2,23.2,00.0,35.4,27.8,16.7,0000.0,0010.38,0003.15,0001.65
2022-10-24 02:58:00,,0814.5,4.99,0.00,26.1,23.2,00.0,35.4,27.8,16.7,0000.0,0010.53,0003.19,0001.64
2022-10-24 02:59:00,,0814.5,5.01,0.00,26.1,23.1,00.0,35.3,27.7,16.8,0000.0,0010.52,0003.23,0001.64
